Tracking 30157 objects as of 12-Feb-2025
HD Live streaming from Space Station
objects crossing your sky now

DELTA 1 DEB

Track DELTA 1 DEB now!
10-day predictions


NORAD ID: 8956
Int'l Code: 1975-004AN
Perigee: 609.3 km
Apogee: 645.1 km
Inclination: 98.3 °
Period: 97.1 minutes
Semi major axis: 6998 km
RCS: 1.9274 m2 (large)
Launch date: January 22, 1975
Source: United States (US)
Launch site: AIR FORCE WESTERN TEST RANGE (AFWTR)

Note: This is SATELLITE DEBRIS
Your satellite tracking list
Your tracking list is empty




NASA's NSSDC Master Catalog

Two Line Element Set (TLE):
1 08956U 75004AN  25043.49888866  .00005189  00000-0  64286-3 0  9997
2 08956  98.3308 201.2462 0025595  59.7697 300.6044 14.82934389589298
Source of the keplerian elements: AFSPC